| time (UTC) | temp C | wind direction | speed KPH | gust KPH | rain 1hr cm | rain 24hr cm | rain mn cm | humidity % | barometer mb |
| 20260505035559 | 16 | 205 | 8.0 | 11.3 | 0.00 | 0.00 | 0.00 | 63 | 1014.4 |
| 20260505035059 | 16 | 196 | 8.0 | 11.3 | 0.00 | 0.00 | 0.00 | 63 | 1014.0 |
| 20260505034559 | 16 | 187 | 8.0 | 11.3 | 0.00 | 0.00 | 0.00 | 62 | 1014.4 |
| 20260505034059 | 16 | 204 | 9.7 | 11.3 | 0.00 | 0.00 | 0.00 | 62 | 1014.4 |
| 20260505033559 | 17 | 196 | 6.4 | 11.3 | 0.00 | 0.00 | 0.00 | 62 | 1014.4 |
| 20260505033059 | 17 | 216 | 8.0 | 11.3 | 0.00 | 0.00 | 0.00 | 61 | 1014.4 |
| 20260505032558 | 17 | 202 | 8.0 | 11.3 | 0.00 | 0.00 | 0.00 | 61 | 1014.4 |
| 20260505032059 | 17 | 207 | 8.0 | 9.7 | 0.00 | 0.00 | 0.00 | 61 | 1014.4 |
| 20260505031559 | 17 | 194 | 8.0 | 11.3 | 0.00 | 0.00 | 0.00 | 61 | 1014.4 |
| 20260505031059 | 17 | 196 | 8.0 | 11.3 | 0.00 | 0.00 | 0.00 | 60 | 1014.0 |
| 20260505030559 | 17 | 209 | 6.4 | 8.0 | 0.00 | 0.00 | 0.00 | 60 | 1014.4 |
| 20260505030059 | 17 | 192 | 8.0 | 9.7 | 0.00 | 0.00 | 0.00 | 60 | 1014.0 |
| 20260505025558 | 17 | 193 | 6.4 | 11.3 | 0.00 | 0.00 | 0.00 | 59 | 1014.0 |
| 20260505025059 | 17 | 198 | 6.4 | 11.3 | 0.00 | 0.00 | 0.00 | 58 | 1014.0 |
| 20260505024558 | 17 | 196 | 8.0 | 11.3 | 0.00 | 0.00 | 0.00 | 59 | 1014.0 |
| 20260505024059 | 17 | 180 | 8.0 | 11.3 | 0.00 | 0.00 | 0.00 | 58 | 1014.0 |
| 20260505023559 | 17 | 187 | 6.4 | 9.7 | 0.00 | 0.00 | 0.00 | 57 | 1014.0 |
| 20260505023059 | 18 | 196 | 6.4 | 9.7 | 0.00 | 0.00 | 0.00 | 56 | 1014.0 |
| 20260505022559 | 18 | 196 | 6.4 | 9.7 | 0.00 | 0.00 | 0.00 | 56 | 1013.7 |
| 20260505022059 | 18 | 195 | 6.4 | 9.7 | 0.00 | 0.00 | 0.00 | 55 | 1014.0 |
| 20260505021559 | 18 | 222 | 6.4 | 14.5 | 0.00 | 0.00 | 0.00 | 55 | 1014.0 |
| 20260505021059 | 18 | 200 | 6.4 | 14.5 | 0.00 | 0.00 | 0.00 | 54 | 1013.7 |
| 20260505020559 | 18 | 216 | 4.8 | 9.7 | 0.00 | 0.00 | 0.00 | 54 | 1014.0 |
| 20260505020059 | 18 | 204 | 6.4 | 14.5 | 0.00 | 0.00 | 0.00 | 53 | 1013.7 |
| 20260505015559 | 19 | 200 | 6.4 | 14.5 | 0.00 | 0.00 | 0.00 | 51 | 1014.0 |
| 20260505015059 | 19 | 222 | 4.8 | 14.5 | 0.00 | 0.00 | 0.00 | 51 | 1014.0 |
| 20260505014559 | 19 | 235 | 6.4 | 11.3 | 0.00 | 0.00 | 0.00 | 52 | 1014.0 |
| 20260505014059 | 19 | 224 | 4.8 | 11.3 | 0.00 | 0.00 | 0.00 | 52 | 1014.0 |
| 20260505013559 | 19 | 201 | 8.0 | 8.0 | 0.00 | 0.00 | 0.00 | 52 | 1013.7 |
| 20260505013059 | 19 | 228 | 4.8 | 14.5 | 0.00 | 0.00 | 0.00 | 52 | 1013.7 |
| 20260505012559 | 19 | 199 | 3.2 | 14.5 | 0.00 | 0.00 | 0.00 | 51 | 1013.7 |
| 20260505012059 | 20 | 195 | 4.8 | 8.0 | 0.00 | 0.00 | 0.00 | 51 | 1013.7 |
| 20260505011559 | 20 | 192 | 4.8 | 9.7 | 0.00 | 0.00 | 0.00 | 50 | 1013.3 |
| 20260505011059 | 20 | 203 | 3.2 | 9.7 | 0.00 | 0.00 | 0.00 | 49 | 1013.7 |
| 20260505010559 | 20 | 227 | 4.8 | 11.3 | 0.00 | 0.00 | 0.00 | 48 | 1014.0 |
| 20260505010059 | 20 | 245 | 3.2 | 11.3 | 0.00 | 0.00 | 0.00 | 47 | 1013.3 |
| 20260505005559 | 20 | 244 | 9.7 | 11.3 | 0.00 | 0.00 | 0.00 | 47 | 1013.7 |
| 20260505005059 | 20 | 243 | 4.8 | 11.3 | 0.00 | 0.00 | 0.00 | 46 | 1013.3 |
| 20260505004559 | 21 | 231 | 4.8 | 11.3 | 0.00 | 0.00 | 0.00 | 46 | 1013.3 |
| 20260505004059 | 21 | 238 | 8.0 | 12.9 | 0.00 | 0.00 | 0.00 | 46 | 1013.3 |
| 20260505003559 | 21 | 224 | 4.8 | 12.9 | 0.00 | 0.00 | 0.00 | 45 | 1013.3 |
| 20260505003059 | 21 | 237 | 8.0 | 12.9 | 0.00 | 0.00 | 0.00 | 44 | 1013.3 |
| 20260505002559 | 21 | 236 | 8.0 | 16.1 | 0.00 | 0.00 | 0.00 | 44 | 1013.3 |
| 20260505002058 | 21 | 246 | 8.0 | 20.9 | 0.00 | 0.00 | 0.00 | 43 | 1013.3 |
| 20260505001558 | 22 | 232 | 11.3 | 20.9 | 0.00 | 0.00 | 0.00 | 43 | 1013.3 |
| 20260505001059 | 22 | 219 | 9.7 | 17.7 | 0.00 | 0.00 | 0.00 | 43 | 1013.3 |
| 20260505000559 | 22 | 227 | 6.4 | 24.1 | 0.00 | 0.00 | 0.00 | 42 | 1013.3 |
| 20260505000059 | 22 | 247 | 14.5 | 24.1 | 0.00 | 0.00 | 0.00 | 41 | 1013.3 |
| 20260504235559 | 22 | 247 | 8.0 | 24.1 | 0.00 | 0.00 | 0.00 | 41 | 1013.3 |
| 20260504235059 | 22 | 264 | 12.9 | 24.1 | 0.00 | 0.00 | 0.00 | 41 | 1013.3 |
| 20260504234559 | 22 | 262 | 11.3 | 29.0 | 0.00 | 0.00 | 0.00 | 41 | 1013.3 |
| 20260504234059 | 22 | 252 | 16.1 | 29.0 | 0.00 | 0.00 | 0.00 | 40 | 1013.3 |
| 20260504233559 | 22 | 246 | 24.1 | 29.0 | 0.00 | 0.00 | 0.00 | 40 | 1013.3 |
| 20260504233059 | 23 | 249 | 16.1 | 29.0 | 0.00 | 0.00 | 0.00 | 39 | 1013.3 |
| 20260504232559 | 23 | 239 | 20.9 | 24.1 | 0.00 | 0.00 | 0.00 | 40 | 1013.3 |
| 20260504232059 | 23 | 256 | 12.9 | 24.1 | 0.00 | 0.00 | 0.00 | 39 | 1013.3 |
| 20260504231559 | 23 | 249 | 17.7 | 20.9 | 0.00 | 0.00 | 0.00 | 39 | 1013.3 |
| 20260504231059 | 23 | 254 | 6.4 | 25.7 | 0.00 | 0.00 | 0.00 | 39 | 1013.3 |
| 20260504230559 | 23 | 233 | 16.1 | 25.7 | 0.00 | 0.00 | 0.00 | 38 | 1013.3 |
| 20260504230059 | 23 | 265 | 17.7 | 25.7 | 0.00 | 0.00 | 0.00 | 38 | 1013.3 |
| 20260504225559 | 23 | 262 | 16.1 | 25.7 | 0.00 | 0.00 | 0.00 | 37 | 1013.7 |
| 20260504225059 | 23 | 281 | 11.3 | 29.0 | 0.00 | 0.00 | 0.00 | 37 | 1013.7 |
| 20260504224559 | 23 | 265 | 17.7 | 29.0 | 0.00 | 0.00 | 0.00 | 37 | 1013.7 |
| 20260504224059 | 23 | 276 | 20.9 | 30.6 | 0.00 | 0.00 | 0.00 | 37 | 1013.7 |
| 20260504223559 | 23 | 255 | 20.9 | 30.6 | 0.00 | 0.00 | 0.00 | 36 | 1013.7 |
| 20260504223059 | 23 | 228 | 14.5 | 29.0 | 0.00 | 0.00 | 0.00 | 39 | 1013.7 |
| 20260504222559 | 23 | 227 | 16.1 | 29.0 | 0.00 | 0.00 | 0.00 | 38 | 1013.7 |
| 20260504221559 | 23 | 241 | 17.7 | 27.4 | 0.00 | 0.00 | 0.00 | 39 | 1013.7 |
| 20260504221059 | 23 | 241 | 16.1 | 32.2 | 0.00 | 0.00 | 0.00 | 39 | 1014.0 |
| 20260504220559 | 23 | 250 | 27.4 | 27.4 | 0.00 | 0.00 | 0.00 | 39 | 1014.0 |
| 20260504220059 | 23 | 271 | 14.5 | 33.8 | 0.00 | 0.00 | 0.00 | 37 | 1014.0 |
| 20260504215559 | 23 | 243 | 20.9 | 33.8 | 0.00 | 0.00 | 0.00 | 37 | 1013.7 |
| 20260504215059 | 23 | 246 | 22.5 | 32.2 | 0.00 | 0.00 | 0.00 | 38 | 1013.7 |
| 20260504214559 | 23 | 246 | 11.3 | 32.2 | 0.00 | 0.00 | 0.00 | 38 | 1014.0 |
| 20260504214058 | 23 | 252 | 14.5 | 33.8 | 0.00 | 0.00 | 0.00 | 39 | 1013.7 |
| 20260504213559 | 23 | 247 | 24.1 | 33.8 | 0.00 | 0.00 | 0.00 | 39 | 1014.0 |
| 20260504213058 | 23 | 215 | 17.7 | 32.2 | 0.00 | 0.00 | 0.00 | 39 | 1013.7 |
| 20260504212559 | 23 | 256 | 19.3 | 32.2 | 0.00 | 0.00 | 0.00 | 39 | 1014.0 |
| 20260504212059 | 23 | 272 | 17.7 | 35.4 | 0.00 | 0.00 | 0.00 | 39 | 1014.0 |
| 20260504211600 | 23 | 251 | 24.1 | 35.4 | 0.00 | 0.00 | 0.00 | 38 | 1014.0 |
| 20260504211059 | 23 | 235 | 29.0 | 35.4 | 0.00 | 0.00 | 0.00 | 39 | 1014.0 |
| 20260504210559 | 23 | 248 | 24.1 | 35.4 | 0.00 | 0.00 | 0.00 | 38 | 1014.4 |
| 20260504210059 | 23 | 244 | 19.3 | 35.4 | 0.00 | 0.00 | 0.00 | 37 | 1014.4 |
| 20260504205559 | 23 | 250 | 16.1 | 35.4 | 0.00 | 0.00 | 0.00 | 37 | 1014.4 |
| 20260504205059 | 24 | 249 | 19.3 | 32.2 | 0.00 | 0.00 | 0.00 | 36 | 1014.4 |
| 20260504204558 | 23 | 262 | 12.9 | 33.8 | 0.00 | 0.00 | 0.00 | 36 | 1014.4 |
| 20260504204058 | 23 | 203 | 22.5 | 33.8 | 0.00 | 0.00 | 0.00 | 37 | 1014.4 |
| 20260504203559 | 23 | 254 | 17.7 | 32.2 | 0.00 | 0.00 | 0.00 | 38 | 1014.4 |
| 20260504203059 | 23 | 264 | 17.7 | 32.2 | 0.00 | 0.00 | 0.00 | 38 | 1014.4 |
| 20260504202559 | 24 | 201 | 14.5 | 32.2 | 0.00 | 0.00 | 0.00 | 37 | 1014.4 |
| 20260504202058 | 23 | 267 | 12.9 | 32.2 | 0.00 | 0.00 | 0.00 | 36 | 1014.7 |
| 20260504201559 | 23 | 266 | 12.9 | 32.2 | 0.00 | 0.00 | 0.00 | 36 | 1014.7 |
| 20260504201059 | 23 | 243 | 24.1 | 32.2 | 0.00 | 0.00 | 0.00 | 37 | 1014.7 |
| 20260504200559 | 23 | 256 | 16.1 | 33.8 | 0.00 | 0.00 | 0.00 | 37 | 1014.7 |
| 20260504200059 | 23 | 253 | 19.3 | 33.8 | 0.00 | 0.00 | 0.00 | 36 | 1014.7 |
| 20260504195559 | 23 | 204 | 12.9 | 32.2 | 0.00 | 0.00 | 0.00 | 35 | 1015.1 |
| 20260504195059 | 23 | 235 | 29.0 | 30.6 | 0.00 | 0.00 | 0.00 | 37 | 1015.1 |
| 20260504194559 | 23 | 262 | 11.3 | 30.6 | 0.00 | 0.00 | 0.00 | 39 | 1014.7 |
| 20260504194059 | 23 | 291 | 9.7 | 25.7 | 0.00 | 0.00 | 0.00 | 40 | 1015.4 |
| 20260504193559 | 23 | 232 | 12.9 | 25.7 | 0.00 | 0.00 | 0.00 | 40 | 1014.7 |
| 20260504193059 | 23 | 236 | 14.5 | 29.0 | 0.00 | 0.00 | 0.00 | 39 | 1015.4 |
| 20260504192559 | 23 | 279 | 22.5 | 29.0 | 0.00 | 0.00 | 0.00 | 39 | 1015.4 |
| 20260504192059 | 23 | 234 | 19.3 | 27.4 | 0.00 | 0.00 | 0.00 | 36 | 1015.4 |
| 20260504191559 | 23 | 214 | 19.3 | 24.1 | 0.00 | 0.00 | 0.00 | 37 | 1015.4 |
| 20260504191059 | 22 | 256 | 12.9 | 29.0 | 0.00 | 0.00 | 0.00 | 43 | 1015.4 |
| 20260504190559 | 22 | 256 | 14.5 | 29.0 | 0.00 | 0.00 | 0.00 | 43 | 1015.4 |
| 20260504190059 | 23 | 211 | 9.7 | 27.4 | 0.00 | 0.00 | 0.00 | 43 | 1015.4 |
| 20260504185559 | 23 | 242 | 11.3 | 30.6 | 0.00 | 0.00 | 0.00 | 43 | 1015.4 |
| 20260504185059 | 22 | 263 | 16.1 | 30.6 | 0.00 | 0.00 | 0.00 | 44 | 1015.4 |
| 20260504184559 | 22 | 258 | 16.1 | 29.0 | 0.00 | 0.00 | 0.00 | 43 | 1015.8 |
| 20260504184059 | 22 | 236 | 6.4 | 25.7 | 0.00 | 0.00 | 0.00 | 44 | 1015.8 |
| 20260504183559 | 22 | 255 | 17.7 | 25.7 | 0.00 | 0.00 | 0.00 | 42 | 1015.4 |
| 20260504183059 | 22 | 235 | 14.5 | 25.7 | 0.00 | 0.00 | 0.00 | 43 | 1015.8 |
| 20260504182559 | 22 | 257 | 22.5 | 25.7 | 0.00 | 0.00 | 0.00 | 42 | 1015.8 |
| 20260504182058 | 22 | 278 | 12.9 | 30.6 | 0.00 | 0.00 | 0.00 | 43 | 1015.8 |
| 20260504181559 | 22 | 248 | 19.3 | 30.6 | 0.00 | 0.00 | 0.00 | 44 | 1016.1 |
| 20260504181059 | 22 | 308 | 12.9 | 25.7 | 0.00 | 0.00 | 0.00 | 43 | 1015.8 |
| 20260504180558 | 22 | 290 | 11.3 | 25.7 | 0.00 | 0.00 | 0.00 | 43 | 1016.1 |
| 20260504180059 | 22 | 284 | 12.9 | 30.6 | 0.00 | 0.00 | 0.00 | 42 | 1016.1 |
| 20260504175559 | 22 | 242 | 16.1 | 30.6 | 0.00 | 0.00 | 0.00 | 43 | 1016.1 |
| 20260504175059 | 22 | 237 | 8.0 | 24.1 | 0.00 | 0.00 | 0.00 | 44 | 1016.1 |
| 20260504174559 | 22 | 244 | 12.9 | 25.7 | 0.00 | 0.00 | 0.00 | 45 | 1016.5 |
| 20260504174059 | 22 | 287 | 12.9 | 25.7 | 0.00 | 0.00 | 0.00 | 45 | 1016.1 |
| 20260504173559 | 22 | 282 | 11.3 | 24.1 | 0.00 | 0.00 | 0.00 | 44 | 1016.5 |
| 20260504173059 | 22 | 231 | 17.7 | 20.9 | 0.00 | 0.00 | 0.00 | 44 | 1016.5 |
| 20260504172600 | 22 | 283 | 12.9 | 24.1 | 0.00 | 0.00 | 0.00 | 45 | 1016.8 |
| 20260504172059 | 22 | 320 | 16.1 | 25.7 | 0.00 | 0.00 | 0.00 | 45 | 1016.5 |
| 20260504171559 | 21 | 275 | 12.9 | 29.0 | 0.00 | 0.00 | 0.00 | 46 | 1016.5 |
| 20260504171059 | 22 | 272 | 20.9 | 29.0 | 0.00 | 0.00 | 0.00 | 46 | 1016.5 |
| 20260504170558 | 21 | 273 | 11.3 | 29.0 | 0.00 | 0.00 | 0.00 | 47 | 1016.8 |
| 20260504151059 | 19 | 272 | 22.5 | 30.6 | 0.00 | 0.00 | 0.00 | 51 | 1017.9 |
| 20260504150558 | 18 | 272 | 17.7 | 35.4 | 0.00 | 0.00 | 0.00 | 52 | 1017.9 |
| 20260504140842 | 16 | 268 | 8.0 | 24.1 | 0.00 | 0.00 | 0.00 | 59 | 1018.3 |
| 20260504140341 | 16 | 249 | 6.4 | 24.1 | 0.00 | 0.00 | 0.00 | 61 | 1017.9 |
| 20260504130800 | 12 | 224 | 11.3 | 17.7 | 0.00 | 0.00 | 0.00 | 69 | 1018.3 |
| 20260504130300 | 12 | 235 | 12.9 | 19.3 | 0.00 | 0.00 | 0.00 | 68 | 1017.9 |
| 20260504120301 | 11 | 249 | 6.4 | 11.3 | 0.00 | 0.00 | 0.00 | 70 | 1017.9 |
| 20260504110300 | 10 | 215 | 3.2 | 12.9 | 0.00 | 0.00 | 0.00 | 70 | 1017.6 |
| 20260504100300 | 10 | 205 | 6.4 | 9.7 | 0.00 | 0.00 | 0.00 | 70 | 1017.2 |
| 20260504081800 | 11 | 245 | 3.2 | 6.4 | 0.00 | 0.00 | 0.00 | 69 | 1017.2 |
| 20260504081300 | 11 | 229 | 1.6 | 11.3 | 0.00 | 0.00 | 0.00 | 68 | 1017.2 |
| 20260504080800 | 11 | 208 | 1.6 | 11.3 | 0.00 | 0.00 | 0.00 | 67 | 1017.2 |
| 20260504080300 | 11 | 170 | 3.2 | 8.0 | 0.00 | 0.00 | 0.00 | 67 | 1017.2 |
| 20260504070300 | 12 | 230 | 9.7 | 16.1 | 0.00 | 0.00 | 0.00 | 61 | 1017.9 |
| 20260504050300 | 12 | 207 | 4.8 | 11.3 | 0.00 | 0.00 | 0.00 | 66 | 1018.6 |
| 20260504045800 | 12 | 206 | 8.0 | 9.7 | 0.00 | 0.00 | 0.00 | 66 | 1018.6 |
| 20260504045300 | 12 | 203 | 8.0 | 9.7 | 0.00 | 0.00 | 0.00 | 66 | 1019.0 |
| 20260504044800 | 12 | 211 | 3.2 | 9.7 | 0.00 | 0.00 | 0.00 | 66 | 1019.0 |
| 20260504044300 | 12 | 193 | 6.4 | 8.0 | 0.00 | 0.00 | 0.00 | 66 | 1019.0 |
| 20260504043800 | 12 | 201 | 1.6 | 8.0 | 0.00 | 0.00 | 0.00 | 68 | 1019.0 |
| 20260504043300 | 12 | 209 | 3.2 | 8.0 | 0.00 | 0.00 | 0.00 | 67 | 1019.0 |
| 20260504042800 | 12 | 200 | 3.2 | 4.8 | 0.00 | 0.00 | 0.00 | 67 | 1019.0 |
| 20260504042300 | 12 | 206 | 3.2 | 4.8 | 0.00 | 0.00 | 0.00 | 66 | 1019.0 |
| 20260504041800 | 12 | 223 | 1.6 | 4.8 | 0.00 | 0.00 | 0.00 | 66 | 1019.0 |
| 20260504041300 | 12 | 195 | 3.2 | 4.8 | 0.00 | 0.00 | 0.00 | 65 | 1019.0 |
| 20260504040801 | 12 | 198 | 3.2 | 3.2 | 0.00 | 0.00 | 0.00 | 63 | 1019.0 |
| 20260504040300 | 13 | 217 | 1.6 | 3.2 | 0.00 | 0.00 | 0.00 | 63 | 1019.0 |
| 20260504035800 | 13 | 208 | 3.2 | 3.2 | 0.00 | 0.00 | 0.00 | 62 | 1019.3 |